Location: Unspecified
(0.0000°N, 0.0000°E)
Time: 19:30:31
(UTC+00:00)

Vanguard 2 - Pass Details

Date: 17 December 2017
Orbit: 553 x 2940 km, 32.9° (Epoch: 18 January)

Event Time Altitude Azimuth Distance (km) Brightness Sun altitude
Rises 20:33:04 0° 336° (NNW) 2,701 - -35.4°
Reaches altitude 10° 20:36:04 10° 2° (N) 1,847 - -36.1°
Maximum altitude 20:38:22 15° 38° (NE) 1,660 - -36.6°
Drops below altitude 10° 20:40:55 10° 72° (ENE) 2,089 - -37.1°
Sets 20:44:43 0° 96° (E) 3,327 - -38.0°
